STARLINK-35778, 66973

Orbit data source: Space-Track

STARLINK-35778, 66973 is a payload satellite owned by SpaceX/Seattle (US) in LEO that was launched on Mon, 08 Dec 2025 UTC via an FALCON 9 launch vehicle from the Air Force Eastern Test Range (AFETR). Payload-class satellites include a variety of spacecraft equipped with specific instruments for various scientific and technological missions. These include communications satellites like Starlink; space stations such as the ISS; scientific satellites like the Hubble; Earth observation satellites from companies like Planet Labs, Umbra, and HawkEye 360; GPS; miniature CubeSats for education and research; and military/defense satellites.

Loading next visibility...
Identifier
66973, 2025-288Q
Orbit
LEO
Country
Flag of USUS
Related business
Manufacturer
SpaceX/Seattle
Mission
Operational Commercial Communications
Bus & Motor
STARLINK V2MO, Unknown motor
Mass
575 kg wet, ~530 kg dry
Launch date (UTC)
2025-12-08 (5 months ago)
Launch vehicle
FALCON 9
Launch site
Air Force Eastern Test Range (AFETR)
Object type
Payload
Rocket body
Debris
Shape & HBR
Box + 2 Pan, 17.7 m
Radar Cross Section
36.964 m²

Expand to show TLE details & history
Last TLE update: 9 hours ago

TLE from 9 hours ago
0 STARLINK-35778
1 66973U 25288Q   26130.10320823  .00006656  00000-0  25132-3 0  9996
2 66973  43.0013  36.2895 0001547 279.4355  80.6322 15.27564075 24682
Epoch: 2026-05-10T02:28Z
TLE epoch observation values (Epoch: 2026-05-10T02:28:37.191Z)
Latitude
0.00002°
Longitude
131.22346°
Altitude
482.7 km
Speed
7.626 km/s
True Right ascension
02h 25m 09s
True Declination
0° 00' 00"
Sunlit
Object was in daylight at epoch
Visualization orbit readout
Latitude
Unknown
Longitude
Unknown
Altitude
Unknown
Speed
Unknown
Apparent Right ascension
Unknown
Apparent Declination
Unknown
Sunlit
N/A
Visualization observer readout
Local Sidereal Time
19:47:44
Azimuth
Unknown
Elevation
Unknown
Doppler factor
Unknown
Orbital elements
Apogee altitude
486.103 km
Perigee altitude
483.98 km
Semi-major axis
6,863.179 km
Eccentricity
0.00015
Inclination
43.0013°
RAAN
36.2895°
Arg. of periapsis
279.4355°
True anomaly
80.64969°
Mean anomaly
80.6322°
Eccentric anomaly
80.64095°
Mean motion
3.81729 °/min
Orbital period
94.31 mins
BSTAR
0.00025132
Loading maneuver chart data...
Computing Atmospheric mass density...
Loading historical data...
Loading historical data...
Loading historical data...
Loading historical data...
Loading historical data...
Loading historical data...
Loading historical data...

Documentation

Showing up to 5 results
|